User: anonymous   Login
Location: Allonne
(49.4086°N, 2.1143°E)
Time: 14:45:26
(UTC+00:00)
Language:

Cosmos 1763 Rocket - Orbit

View from above orbital plane
View from above orbital plane
View from above satellite
View from above satellite

Ground track
Ground track

The orbit data is extracted from the following two-line orbital elements,

1 16864U 86052B   23160.89107344  .00000247  00000-0  84807-4 0  9998
2 16864  74.0300  13.1163 0033559 294.1501  65.6147 14.40996720937126
Epoch (UTC): 09 June 2023 21:23:08
Eccentricity: 0.0033559
inclination: 74.0300°
perigee height: 731 km
apogee height: 779 km
right ascension of ascending node: 13.1163°
argument of perigee: 294.1501°
revolutions per day: 14.40996720
mean anomaly at epoch: 65.6147°
orbit number at epoch: 93712

The dashed part of the orbit path shows where the satellite is in the earth's shadow,  

DLR